Time,TemperatureF,DewpointF,PressureIn,WindDirection,WindDirectionDegrees,WindSpeedMPH,WindSpeedGustMPH,Humidity,HourlyPrecipIn,Conditions,Clouds,dailyrainin,SoftwareType,DateUTC
2013-03-07 00:02:00,38.0,35.0,29.91,ENE,58,12.0,21.0,90,0.00,,,0.03,,2013-03-07 05:02:00,
2013-03-07 00:12:00,38.0,35.0,29.91,ENE,58,12.0,21.0,90,0.00,,,0.03,,2013-03-07 05:12:00,
2013-03-07 00:22:00,38.0,36.0,29.89,ENE,59,13.0,24.0,91,0.00,,,0.05,,2013-03-07 05:22:00,
2013-03-07 00:32:00,38.0,36.0,29.89,ENE,59,13.0,24.0,91,0.00,,,0.05,,2013-03-07 05:32:00,
2013-03-07 00:42:00,38.0,36.0,29.89,ENE,59,13.0,24.0,91,0.00,,,0.05,,2013-03-07 05:42:00,
2013-03-07 00:52:00,38.0,36.0,29.88,ENE,61,10.0,43.0,92,0.00,,,0.03,,2013-03-07 05:52:00,
2013-03-07 01:01:00,38.0,36.0,29.87,NE,49,12.0,32.0,92,0.00,,,0.03,,2013-03-07 06:01:00,
2013-03-07 01:11:00,38.0,36.0,29.87,NE,49,12.0,32.0,92,0.00,,,0.03,,2013-03-07 06:11:00,
2013-03-07 01:21:00,37.0,35.0,29.87,NE,56,10.0,26.0,93,0.00,,,0.03,,2013-03-07 06:21:00,
2013-03-07 01:32:00,37.0,35.0,29.87,NE,56,10.0,26.0,93,0.00,,,0.03,,2013-03-07 06:32:00,
2013-03-07 01:42:00,37.0,35.0,29.86,ENE,59,9.0,41.0,94,0.01,,,0.03,,2013-03-07 06:42:00,
2013-03-07 01:52:00,37.0,35.0,29.86,ENE,59,9.0,41.0,94,0.01,,,0.03,,2013-03-07 06:52:00,
2013-03-07 02:02:00,37.0,36.0,29.86,NE,54,8.0,32.0,95,0.02,,,0.04,,2013-03-07 07:02:00,
2013-03-07 02:11:00,37.0,36.0,29.86,NE,54,8.0,32.0,95,0.02,,,0.04,,2013-03-07 07:11:00,
2013-03-07 02:22:00,36.0,35.0,29.85,NE,38,14.0,31.0,95,0.00,,,0.05,,2013-03-07 07:22:00,
2013-03-07 02:32:00,36.0,35.0,29.85,NE,38,14.0,31.0,95,0.00,,,0.05,,2013-03-07 07:32:00,
2013-03-07 02:43:00,36.0,35.0,29.85,NE,38,14.0,31.0,95,0.00,,,0.05,,2013-03-07 07:43:00,
2013-03-07 02:53:00,36.0,35.0,29.83,NE,44,12.0,32.0,95,0.02,,,0.07,,2013-03-07 07:53:00,
2013-03-07 03:03:00,36.0,35.0,29.83,NE,44,12.0,32.0,95,0.02,,,0.07,,2013-03-07 08:03:00,
2013-03-07 03:12:00,36.0,35.0,29.83,NE,44,12.0,32.0,95,0.02,,,0.07,,2013-03-07 08:12:00,
2013-03-07 03:23:00,37.0,36.0,29.82,NE,45,14.0,28.0,95,0.00,,,0.09,,2013-03-07 08:23:00,
2013-03-07 03:34:00,37.0,36.0,29.82,NE,45,14.0,28.0,95,0.00,,,0.09,,2013-03-07 08:34:00,
2013-03-07 03:54:00,37.0,36.0,29.82,NE,56,13.0,35.0,95,0.02,,,0.11,,2013-03-07 08:54:00,
2013-03-07 04:03:00,36.0,35.0,29.83,NE,50,10.0,31.0,95,0.04,,,0.13,,2013-03-07 09:03:00,
2013-03-07 04:13:00,36.0,35.0,29.83,NE,50,10.0,31.0,95,0.04,,,0.13,,2013-03-07 09:13:00,
2013-03-07 04:23:00,36.0,35.0,29.83,NE,51,6.0,33.0,96,0.00,,,0.15,,2013-03-07 09:23:00,
2013-03-07 04:33:00,37.0,36.0,29.82,NE,37,13.0,34.0,96,0.01,,,0.16,,2013-03-07 09:33:00,
2013-03-07 04:43:00,37.0,36.0,29.82,NE,37,13.0,34.0,96,0.01,,,0.16,,2013-03-07 09:43:00,
2013-03-07 04:53:00,36.0,35.0,29.84,NE,35,8.0,33.0,95,0.03,,,0.18,,2013-03-07 09:53:00,
2013-03-07 05:03:00,36.0,35.0,29.84,NE,35,8.0,33.0,95,0.03,,,0.18,,2013-03-07 10:03:00,
2013-03-07 05:13:00,36.0,35.0,29.84,NE,35,8.0,33.0,95,0.03,,,0.18,,2013-03-07 10:13:00,
2013-03-07 05:23:00,36.0,35.0,29.84,NE,38,12.0,28.0,96,0.00,,,0.22,,2013-03-07 10:23:00,
2013-03-07 05:33:00,36.0,35.0,29.84,NE,43,8.0,26.0,96,0.01,,,0.23,,2013-03-07 10:33:00,
2013-03-07 05:43:00,36.0,35.0,29.84,NE,43,8.0,26.0,96,0.01,,,0.23,,2013-03-07 10:43:00,
2013-03-07 05:53:00,36.0,35.0,29.84,NE,42,8.0,29.0,96,0.03,,,0.25,,2013-03-07 10:53:00,
2013-03-07 06:03:00,36.0,35.0,29.84,NE,41,11.0,26.0,96,0.03,,,0.25,,2013-03-07 11:03:00,
2013-03-07 06:12:00,36.0,35.0,29.84,NE,41,11.0,26.0,96,0.03,,,0.25,,2013-03-07 11:12:00,
2013-03-07 06:23:00,36.0,35.0,29.83,NE,42,8.0,25.0,96,0.00,,,0.27,,2013-03-07 11:23:00,
2013-03-07 06:33:00,36.0,35.0,29.84,NE,45,13.0,37.0,96,0.01,,,0.28,,2013-03-07 11:33:00,
2013-03-07 06:43:00,36.0,35.0,29.84,NE,45,13.0,37.0,96,0.01,,,0.28,,2013-03-07 11:43:00,
2013-03-07 06:54:00,37.0,36.0,29.84,NE,42,9.0,28.0,96,0.03,,,0.30,,2013-03-07 11:54:00,
2013-03-07 07:03:00,37.0,36.0,29.84,NE,45,12.0,27.0,96,0.04,,,0.31,,2013-03-07 12:03:00,
2013-03-07 07:12:00,37.0,36.0,29.84,NE,45,12.0,27.0,96,0.04,,,0.31,,2013-03-07 12:12:00,
2013-03-07 07:23:00,37.0,36.0,29.84,NE,46,13.0,30.0,95,0.00,,,0.33,,2013-03-07 12:23:00,
2013-03-07 07:33:00,37.0,36.0,29.84,NE,46,13.0,30.0,95,0.00,,,0.33,,2013-03-07 12:33:00,
2013-03-07 07:43:00,37.0,36.0,29.84,NE,46,13.0,30.0,95,0.00,,,0.33,,2013-03-07 12:43:00,
2013-03-07 07:53:00,37.0,36.0,29.84,NE,48,11.0,34.0,95,0.03,,,0.35,,2013-03-07 12:53:00,
2013-03-07 08:13:00,37.0,36.0,29.84,NE,52,15.0,38.0,95,0.04,,,0.36,,2013-03-07 13:13:00,
2013-03-07 08:23:00,37.0,36.0,29.85,NE,43,14.0,33.0,95,0.05,,,0.37,,2013-03-07 13:23:00,
2013-03-07 08:32:00,37.0,35.0,29.85,NE,40,13.0,32.0,94,0.01,,,0.39,,2013-03-07 13:32:00,
2013-03-07 08:42:00,37.0,35.0,29.85,NE,40,13.0,32.0,94,0.01,,,0.39,,2013-03-07 13:42:00,
2013-03-07 08:53:00,37.0,36.0,29.84,NNE,33,11.0,29.0,95,0.02,,,0.40,,2013-03-07 13:53:00,
2013-03-07 09:02:00,37.0,35.0,29.84,NE,43,10.0,27.0,94,0.03,,,0.41,,2013-03-07 14:02:00,
2013-03-07 09:12:00,37.0,35.0,29.84,NE,43,10.0,27.0,94,0.03,,,0.41,,2013-03-07 14:12:00,
2013-03-07 09:23:00,37.0,36.0,29.84,NE,53,12.0,29.0,95,0.00,,,0.42,,2013-03-07 14:23:00,
2013-03-07 09:33:00,37.0,36.0,29.84,NNE,32,11.0,32.0,95,0.01,,,0.43,,2013-03-07 14:33:00,
2013-03-07 09:42:00,37.0,36.0,29.84,NNE,32,11.0,32.0,95,0.01,,,0.43,,2013-03-07 14:42:00,
2013-03-07 09:54:00,37.0,36.0,29.84,ENE,59,10.0,28.0,95,0.02,,,0.44,,2013-03-07 14:54:00,
2013-03-07 10:03:00,37.0,35.0,29.83,NE,36,13.0,38.0,94,0.03,,,0.45,,2013-03-07 15:03:00,
2013-03-07 10:12:00,37.0,35.0,29.83,NE,36,13.0,38.0,94,0.03,,,0.45,,2013-03-07 15:12:00,
2013-03-07 10:23:00,37.0,36.0,29.84,NE,48,13.0,32.0,95,0.00,,,0.47,,2013-03-07 15:23:00,
2013-03-07 10:32:00,37.0,36.0,29.83,NNE,28,8.0,43.0,95,0.01,,,0.48,,2013-03-07 15:32:00,
2013-03-07 10:42:00,37.0,36.0,29.83,NNE,28,8.0,43.0,95,0.01,,,0.48,,2013-03-07 15:42:00,
2013-03-07 10:53:00,37.0,36.0,29.83,NE,38,13.0,39.0,95,0.03,,,0.50,,2013-03-07 15:53:00,
2013-03-07 11:02:00,37.0,36.0,29.84,NE,51,16.0,31.0,95,0.04,,,0.51,,2013-03-07 16:02:00,
2013-03-07 11:13:00,37.0,36.0,29.84,NE,51,16.0,31.0,95,0.04,,,0.51,,2013-03-07 16:13:00,
2013-03-07 11:23:00,36.0,35.0,29.84,NE,38,15.0,36.0,95,0.07,,,0.54,,2013-03-07 16:23:00,
2013-03-07 11:33:00,36.0,35.0,29.83,NE,37,16.0,39.0,96,0.02,,,0.57,,2013-03-07 16:33:00,
2013-03-07 11:43:00,36.0,35.0,29.83,NE,37,16.0,39.0,96,0.02,,,0.57,,2013-03-07 16:43:00,
2013-03-07 11:52:00,36.0,35.0,29.83,NNE,32,13.0,33.0,96,0.06,,,0.61,,2013-03-07 16:52:00,
2013-03-07 12:02:00,37.0,36.0,29.83,NE,41,15.0,30.0,96,0.07,,,0.62,,2013-03-07 17:02:00,
2013-03-07 12:12:00,37.0,36.0,29.83,NE,41,15.0,30.0,96,0.07,,,0.62,,2013-03-07 17:12:00,
2013-03-07 12:23:00,37.0,36.0,29.83,NE,48,12.0,29.0,95,0.00,,,0.64,,2013-03-07 17:23:00,
2013-03-07 12:33:00,37.0,36.0,29.83,NE,40,9.0,29.0,95,0.00,,,0.64,,2013-03-07 17:33:00,
2013-03-07 12:43:00,37.0,36.0,29.83,NE,40,9.0,29.0,95,0.00,,,0.64,,2013-03-07 17:43:00,
2013-03-07 12:54:00,37.0,36.0,29.83,ENE,63,15.0,34.0,95,0.02,,,0.66,,2013-03-07 17:54:00,
2013-03-07 13:04:00,36.0,35.0,29.83,NE,50,13.0,33.0,95,0.03,,,0.67,,2013-03-07 18:04:00,
2013-03-07 13:12:00,36.0,35.0,29.83,NE,50,13.0,33.0,95,0.03,,,0.67,,2013-03-07 18:12:00,
2013-03-07 13:22:00,36.0,35.0,29.83,ENE,59,12.0,31.0,95,0.04,,,0.68,,2013-03-07 18:22:00,
2013-03-07 13:32:00,36.0,35.0,29.83,NE,41,9.0,35.0,95,0.01,,,0.69,,2013-03-07 18:32:00,
2013-03-07 13:42:00,36.0,35.0,29.83,NE,41,9.0,35.0,95,0.01,,,0.69,,2013-03-07 18:42:00,
2013-03-07 13:52:00,36.0,35.0,29.83,NNE,30,13.0,31.0,95,0.02,,,0.70,,2013-03-07 18:52:00,
2013-03-07 14:03:00,36.0,35.0,29.82,NNE,27,9.0,33.0,96,0.04,,,0.72,,2013-03-07 19:03:00,
2013-03-07 14:12:00,36.0,35.0,29.82,NE,34,13.0,31.0,96,0.00,,,0.73,,2013-03-07 19:12:00,
2013-03-07 14:23:00,36.0,35.0,29.82,NE,34,13.0,31.0,96,0.00,,,0.73,,2013-03-07 19:23:00,
2013-03-07 14:35:00,36.0,35.0,29.83,NE,35,15.0,33.0,95,0.01,,,0.74,,2013-03-07 19:35:00,
2013-03-07 14:43:00,36.0,35.0,29.83,NE,35,15.0,33.0,95,0.01,,,0.74,,2013-03-07 19:43:00,
2013-03-07 14:53:00,36.0,35.0,29.83,NE,34,15.0,32.0,95,0.02,,,0.75,,2013-03-07 19:53:00,
2013-03-07 15:02:00,36.0,35.0,29.83,NE,37,11.0,35.0,95,0.04,,,0.77,,2013-03-07 20:02:00,
2013-03-07 15:13:00,36.0,35.0,29.83,NE,37,11.0,35.0,95,0.04,,,0.77,,2013-03-07 20:13:00,
2013-03-07 15:22:00,36.0,35.0,29.83,NE,37,11.0,35.0,95,0.04,,,0.77,,2013-03-07 20:22:00,
2013-03-07 15:33:00,35.0,34.0,29.83,NNE,14,11.0,32.0,96,0.02,,,0.80,,2013-03-07 20:33:00,
2013-03-07 15:43:00,35.0,34.0,29.83,NNE,14,11.0,32.0,96,0.02,,,0.80,,2013-03-07 20:43:00,
2013-03-07 15:54:00,36.0,35.0,29.83,NNE,15,11.0,28.0,96,0.04,,,0.82,,2013-03-07 20:54:00,
2013-03-07 16:03:00,35.0,34.0,29.83,NNE,33,14.0,32.0,96,0.05,,,0.83,,2013-03-07 21:03:00,
2013-03-07 16:12:00,35.0,34.0,29.83,NNE,33,14.0,32.0,96,0.05,,,0.83,,2013-03-07 21:12:00,
2013-03-07 16:23:00,36.0,35.0,29.83,NE,34,12.0,31.0,96,0.01,,,0.86,,2013-03-07 21:23:00,
2013-03-07 16:33:00,35.0,34.0,29.84,NNE,24,12.0,34.0,96,0.02,,,0.87,,2013-03-07 21:33:00,
2013-03-07 16:43:00,35.0,34.0,29.84,NNE,24,12.0,34.0,96,0.02,,,0.87,,2013-03-07 21:43:00,
2013-03-07 16:53:00,35.0,34.0,29.84,NNE,30,13.0,27.0,96,0.06,,,0.91,,2013-03-07 21:53:00,
2013-03-07 17:02:00,35.0,34.0,29.85,NNE,17,13.0,27.0,96,0.08,,,0.93,,2013-03-07 22:02:00,
2013-03-07 17:12:00,35.0,34.0,29.85,NNE,17,13.0,27.0,96,0.08,,,0.93,,2013-03-07 22:12:00,
2013-03-07 17:23:00,35.0,34.0,29.84,NNE,18,14.0,35.0,96,0.10,,,0.95,,2013-03-07 22:23:00,
2013-03-07 17:32:00,36.0,35.0,29.85,NNE,23,14.0,36.0,96,0.02,,,0.98,,2013-03-07 22:32:00,
2013-03-07 17:43:00,36.0,35.0,29.85,NNE,23,14.0,36.0,96,0.02,,,0.98,,2013-03-07 22:43:00,
2013-03-07 17:53:00,36.0,35.0,29.85,NNE,25,14.0,27.0,96,0.03,,,0.99,,2013-03-07 22:53:00,
2013-03-07 18:03:00,36.0,35.0,29.85,NNE,31,14.0,32.0,95,0.04,,,1.00,,2013-03-07 23:03:00,
2013-03-07 18:13:00,36.0,35.0,29.85,NNE,31,14.0,32.0,95,0.04,,,1.00,,2013-03-07 23:13:00,
2013-03-07 18:22:00,36.0,35.0,29.85,NNE,29,15.0,33.0,95,0.06,,,1.02,,2013-03-07 23:22:00,
2013-03-07 18:34:00,36.0,35.0,29.86,NNE,22,15.0,30.0,95,0.02,,,1.05,,2013-03-07 23:34:00,
2013-03-07 18:43:00,36.0,35.0,29.86,NNE,22,15.0,30.0,95,0.02,,,1.05,,2013-03-07 23:43:00,
2013-03-07 18:53:00,36.0,35.0,29.86,NNE,15,12.0,29.0,95,0.05,,,1.08,,2013-03-07 23:53:00,
2013-03-07 19:04:00,35.0,34.0,29.86,NE,42,14.0,34.0,96,0.06,,,1.09,,2013-03-08 00:04:00,
2013-03-07 19:13:00,35.0,34.0,29.86,NE,42,14.0,34.0,96,0.06,,,1.09,,2013-03-08 00:13:00,
2013-03-07 19:23:00,35.0,34.0,29.86,NNE,14,13.0,30.0,96,0.00,,,1.12,,2013-03-08 00:23:00,
2013-03-07 19:34:00,35.0,34.0,29.86,NNE,18,15.0,30.0,96,0.01,,,1.13,,2013-03-08 00:34:00,
2013-03-07 19:43:00,35.0,34.0,29.86,NNE,18,15.0,30.0,96,0.01,,,1.13,,2013-03-08 00:43:00,
2013-03-07 19:54:00,35.0,34.0,29.86,NNE,13,15.0,37.0,97,0.03,,,1.15,,2013-03-08 00:54:00,
2013-03-07 20:02:00,35.0,34.0,29.86,NNE,27,10.0,34.0,96,0.04,,,1.16,,2013-03-08 01:02:00,
2013-03-07 20:11:00,35.0,34.0,29.86,NNE,27,10.0,34.0,96,0.04,,,1.16,,2013-03-08 01:11:00,
2013-03-07 20:22:00,35.0,34.0,29.86,NNE,17,12.0,28.0,97,0.00,,,1.17,,2013-03-08 01:22:00,
2013-03-07 20:33:00,36.0,35.0,29.86,NNE,28,14.0,27.0,97,0.02,,,1.19,,2013-03-08 01:33:00,
2013-03-07 20:42:00,36.0,35.0,29.86,NNE,28,14.0,27.0,97,0.02,,,1.19,,2013-03-08 01:42:00,
2013-03-07 20:52:00,36.0,35.0,29.85,NNE,24,10.0,28.0,97,0.04,,,1.21,,2013-03-08 01:52:00,
2013-03-07 21:01:00,36.0,35.0,29.86,NNE,24,14.0,31.0,97,0.04,,,1.21,,2013-03-08 02:01:00,
2013-03-07 21:12:00,36.0,35.0,29.85,NNE,16,14.0,26.0,97,0.01,,,1.23,,2013-03-08 02:12:00,
2013-03-07 21:22:00,36.0,35.0,29.85,NNE,16,14.0,26.0,97,0.01,,,1.23,,2013-03-08 02:22:00,
2013-03-07 21:32:00,36.0,35.0,29.85,NNE,15,11.0,29.0,96,0.01,,,1.23,,2013-03-08 02:32:00,
2013-03-07 21:42:00,36.0,35.0,29.85,NNE,15,11.0,29.0,96,0.01,,,1.23,,2013-03-08 02:42:00,
2013-03-07 21:53:00,36.0,35.0,29.85,NNE,23,11.0,27.0,97,0.03,,,1.25,,2013-03-08 02:53:00,
2013-03-07 22:12:00,36.0,35.0,29.85,NNE,29,11.0,29.0,96,0.04,,,1.26,,2013-03-08 03:12:00,
2013-03-07 22:22:00,36.0,35.0,29.85,NNE,25,13.0,29.0,96,0.05,,,1.27,,2013-03-08 03:22:00,
2013-03-07 22:32:00,36.0,35.0,29.85,NNE,29,11.0,27.0,96,0.00,,,1.28,,2013-03-08 03:32:00,
2013-03-07 22:43:00,36.0,35.0,29.85,NNE,29,11.0,27.0,96,0.00,,,1.28,,2013-03-08 03:43:00,
2013-03-07 22:52:00,36.0,35.0,29.84,NNE,12,12.0,28.0,96,0.01,,,1.29,,2013-03-08 03:52:00,
2013-03-07 23:02:00,36.0,35.0,29.84,NNE,22,11.0,28.0,96,0.02,,,1.30,,2013-03-08 04:02:00,
2013-03-07 23:11:00,36.0,35.0,29.84,NNE,22,11.0,28.0,96,0.02,,,1.30,,2013-03-08 04:11:00,
2013-03-07 23:22:00,36.0,35.0,29.84,NNE,26,11.0,24.0,96,0.02,,,1.29,,2013-03-08 04:22:00,
2013-03-07 23:32:00,36.0,35.0,29.83,NNE,33,10.0,28.0,96,0.01,,,1.31,,2013-03-08 04:32:00,
2013-03-07 23:42:00,36.0,35.0,29.83,NNE,33,10.0,28.0,96,0.01,,,1.31,,2013-03-08 04:42:00,
2013-03-07 23:52:00,36.0,35.0,29.83,NE,42,13.0,33.0,96,0.03,,,1.33,,2013-03-08 04:52:00,